Location: Piotrkow Trybunalski
(51.4000°N, 19.6830°E)
Time: 05:26:06
(UTC+02:00)

STRAND 1 - Pass Details

Date: 01 March 2024
Orbit: 764 x 779 km, 98.4° (Epoch: 24 April)

Event Time Altitude Azimuth Distance (km) Brightness Sun altitude
Rises 19:45:57 0° 7° (N) 3,270 ? -22.9°
Reaches altitude 10° 19:48:37 10° 354° (N) 2,336 ? -23.3°
Maximum altitude 19:52:43 25° 301° (WNW) 1,537 ? -23.9°
Drops below altitude 10° 19:56:48 10° 248° (WSW) 2,316 ? -24.5°
Sets 19:59:27 0° 236° (SW) 3,236 ? -24.9°
